"Pseudo-MPEC" for C8FL9P2

Created 2022 Nov 25 16:22:06 UT using Find_Orb

Click here for an explanation of pseudo-MPECs

 
 Astrometry: 
     C8FL9P2*1C2022 11 19.29782803 43 48.954-00 57 27.22   ~BJ7q 20.98GVNEOCPG96
     C8FL9P2 1C2022 11 19.30419303 43 47.950-00 59 55.68   ~BJ7q 20.68GVNEOCPG96
     C8FL9P2 1C2022 11 19.30933903 43 47.269-01 01 58.76   ~BJ7q 20.82GVNEOCPG96
     C8FL9P2 KC2022 11 19.40687803 43 34.183-01 40 11.60   ~BJA7 20.98GVNEOCPI52
     C8FL9P2 KC2022 11 19.40854503 43 33.978-01 40 50.20   ~BJA7 21.60GVNEOCPI52
     C8FL9P2 KC2022 11 19.41021103 43 33.798-01 41 29.08   ~BJA7 20.60GVNEOCPI52
     C8FL9P2 KC2022 11 19.41187403 43 33.607-01 42 08.42   ~BJA7 20.48GVNEOCPI52

Station data:
(G96) Mt. Lemmon Survey  (N32.442751 W110.788720)  US/Arizona.  Observers T.
   A. Pruyne, B. M. Africano, E. J. Christensen, G. A. Farneth, D. C. Fuls,
   A. R. Gibbs, A. D. Grauer, H. Gröller, J. A. Johnson, R. A. Kowalski, S.
   M. Larson, G. J. Leonard, D. Rankin, R. L. Seaman, F. C. Shelly, K. W.
   Wierzchoś. 1.5-m reflector + 10K CCD.
(I52) Steward Observatory, Mt. Lemmon Station  (N32.442544 W110.788920)
   US/Arizona.  Observers T. A. Pruyne, B. M. Africano, E. J. Christensen, G.
   A. Farneth, D. C. Fuls, A. R. Gibbs, A. D. Grauer, H. Gröller, J. A.
   Johnson, R. A. Kowalski, S. M. Larson, G. J. Leonard, D. Rankin, R. L.
   Seaman, F. C. Shelly, K. W. Wierzchoś. 1.0-m reflector + CCD.

Orbital elements:  C8FL9P2
   Perihelion 2023 Mar 9.13761 +/- 59.1 TT =  3:18:09 (JD 2460012.63761)
Epoch 2022 Nov 19.0 TT = JDT 2459902.5   Earth MOID: 0.0037   AutoNEOCP
M 255.72038816 +/- 70               (J2000 ecliptic)
n   0.94681204 +/- 0.0935           Peri.  290.37935 +/- 70
a   1.02713343 +/- 0.0676           Node   233.84824 +/- 0.41
e   0.0326606 +/- 0.0537            Incl.   20.41189 +/- 8
P   1.04/380.22d           H 26.6   G  0.15   U 11.2  SR
q 0.99358657 +/- 0.062    Q 1.06068028 +/- 0.13
From 7 observations 2022 Nov. 19 (2.7 hr); mean residual 0".55
Residuals in arcseconds: 
221119 G96  .98+  .68-    221119 I52  .30-  .28-    221119 I52  .42+  .15-    
221119 G96  .78-  1.2+    221119 I52  .24-  .15+    
221119 G96  .25-  .45-    221119 I52  .18+  .27+    

Ephemerides (geocentric):
Date (UTC) HH   RA             Dec           delta  r     elong  mag " sig PA
---- --------  ------------   ------------  ------ ------ -----  --- --------
2022 11 25 16  03 36 59.105   -31 23 04.26  .07250 1.0328 127.5 22.8 341'  82
2022 11 25 17  03 36 56.985   -31 30 51.82  .07269 1.0328 127.3 22.8 344'  82
2022 11 25 18  03 36 54.873   -31 38 36.81  .07288 1.0328 127.2 22.8 346'  82
2022 11 25 19  03 36 52.767   -31 46 19.23  .07307 1.0328 127.0 22.8 349'  82
2022 11 25 20  03 36 50.668   -31 53 59.10  .07325 1.0328 126.9 22.8 352'  82
2022 11 25 21  03 36 48.576   -32 01 36.43  .07345 1.0327 126.7 22.9 355'  82
2022 11 25 22  03 36 46.492   -32 09 11.25  .07364 1.0327 126.6 22.9 358'  82
2022 11 25 23  03 36 44.414   -32 16 43.55  .07383 1.0327 126.5 22.9 361'  82
2022 11 26 00  03 36 42.344   -32 24 13.37  .07402 1.0327 126.3 22.9 364'  82
2022 11 26 01  03 36 40.281   -32 31 40.71  .07421 1.0326 126.2 22.9 367'  82
2022 11 26 02  03 36 38.225   -32 39 05.58  .07440 1.0326 126.1 22.9 369'  82
2022 11 26 03  03 36 36.175   -32 46 28.01  .07459 1.0326 125.9 22.9 372'  82
2022 11 26 04  03 36 34.133   -32 53 48.01  .07479 1.0326 125.8 22.9 375'  82
2022 11 26 05  03 36 32.098   -33 01 05.58  .07498 1.0325 125.6 22.9 378'  82
2022 11 26 06  03 36 30.070   -33 08 20.76  .07517 1.0325 125.5 22.9 381'  82
2022 11 26 07  03 36 28.049   -33 15 33.54  .07537 1.0325 125.4 22.9 384'  82
2022 11 26 08  03 36 26.035   -33 22 43.95  .07556 1.0325 125.2 23.0 386'  82
2022 11 26 09  03 36 24.029   -33 29 52.00  .07575 1.0325 125.1 23.0 389'  82
2022 11 26 10  03 36 22.029   -33 36 57.70  .07595 1.0324 125.0 23.0 392'  82
2022 11 26 11  03 36 20.036   -33 44 01.07  .07614 1.0324 124.9 23.0 395'  82
2022 11 26 12  03 36 18.050   -33 51 02.12  .07634 1.0324 124.7 23.0 397'  82
2022 11 26 13  03 36 16.071   -33 58 00.87  .07653 1.0324 124.6 23.0 400'  82
2022 11 26 14  03 36 14.099   -34 04 57.32  .07673 1.0323 124.5 23.0 403'  82
2022 11 26 15  03 36 12.135   -34 11 51.50  .07693 1.0323 124.3 23.0 406'  82
2022 11 26 16  03 36 10.177   -34 18 43.42  .07712 1.0323 124.2 23.0 408'  82
2022 11 26 17  03 36 08.226   -34 25 33.09  .07732 1.0323 124.1 23.0 411'  82
2022 11 26 18  03 36 06.282   -34 32 20.52  .07752 1.0323 124.0 23.0 414'  82
2022 11 26 19  03 36 04.345   -34 39 05.74  .07771 1.0322 123.8 23.1 416'  82
2022 11 26 20  03 36 02.415   -34 45 48.74  .07791 1.0322 123.7 23.1 419'  82
2022 11 26 21  03 36 00.492   -34 52 29.56  .07811 1.0322 123.6 23.1 422'  82
2022 11 26 22  03 35 58.576   -34 59 08.19  .07831 1.0322 123.5 23.1 424'  82
2022 11 26 23  03 35 56.667   -35 05 44.65  .07851 1.0321 123.3 23.1 427'  82
2022 11 27 00  03 35 54.765   -35 12 18.97  .07871 1.0321 123.2 23.1 430'  82
2022 11 27 01  03 35 52.870   -35 18 51.14  .07891 1.0321 123.1 23.1 432'  82
2022 11 27 02  03 35 50.982   -35 25 21.18  .07910 1.0321 123.0 23.1 435'  82
2022 11 27 03  03 35 49.100   -35 31 49.11  .07930 1.0320 122.8 23.1 437'  82
2022 11 27 04  03 35 47.226   -35 38 14.94  .07950 1.0320 122.7 23.1 440'  81
2022 11 27 05  03 35 45.358   -35 44 38.69  .07970 1.0320 122.6 23.1 443'  81
2022 11 27 06  03 35 43.497   -35 51 00.36  .07991 1.0320 122.5 23.1 445'  81
2022 11 27 07  03 35 41.644   -35 57 19.96  .08011 1.0320 122.4 23.2 448'  81
2022 11 27 08  03 35 39.797   -36 03 37.52  .08031 1.0319 122.2 23.2 450'  81
2022 11 27 09  03 35 37.957   -36 09 53.04  .08051 1.0319 122.1 23.2 453'  81
2022 11 27 10  03 35 36.124   -36 16 06.54  .08071 1.0319 122.0 23.2 455'  81
2022 11 27 11  03 35 34.297   -36 22 18.03  .08091 1.0319 121.9 23.2 458'  81
2022 11 27 12  03 35 32.478   -36 28 27.52  .08111 1.0318 121.8 23.2 460'  81
2022 11 27 13  03 35 30.665   -36 34 35.02  .08132 1.0318 121.7 23.2 463'  81
2022 11 27 14  03 35 28.860   -36 40 40.55  .08152 1.0318 121.6 23.2 465'  81
2022 11 27 15  03 35 27.061   -36 46 44.12  .08172 1.0318 121.4 23.2 468'  81